Starlink 11120

operational
NORAD ID: 60042 Int'l Des: 2024-112 Owner: SPXS Country: US Constellation: starlink
LEOCIRCULAR

About Starlink 11120

Description loading...

Live Position

Loading 3D Globe...

Upcoming Passes

Altitude History

Altitude vs Time

uPlot chart will show altitude changes over time

Two-Line Element Set

1 60042U 24112E 25305.93100296 .00002725 00000-0 27345-4 0 9998
2 60042 53.1587 176.1791 0002075 102.8604 257.2646 15.69715477 80912
Epoch: Nov 1, 2025 • Age: 55 hours

Current Status

Altitude 362.3 km
Velocity 7.70 km/s
Sub-Earth Point 38.97°N, 74.58°E
Launch Date Jun 8, 2024
Age 1.4 years
Type internet

Technical Details

Classification Payload
Mass 960.00 kg
Dry Mass 910.00 kg
Total Mass 960.00 kg
Length 0.30 m
Diameter 4.10 m
Span 29.00 m
Shape Box + pan
Manufacturer SPXS
Bus Type Starlink V2MD
Phase Status In Orbit
Owner/State SPXS/US

Large Constellations

Loading constellations...